CAPE
560 633 648 660 670 714 757 791 817 796 762 743 735 749 810 847 877 954 894 811 830 838 941 906 917 861 549 702 983 1116 1108 1124 1131 1194 1316 1470 1729 1914 2044 2128 2114 2138 2155 1919 1684 2268 1891 2060 2323 2482 2683 2488 2302 2284 2186 1789 1642 1446 1678 2997 1706 1552 1158 25 0 0 0 0 0 99 187 216 827 482 612 644 666 826 1181 1740 1578 1423 1488 1592 1679
543 588 588 578 586 607 671 749 782 770 787 737 694 724 747 760 805 867 850 803 805 864 996 953 936 936 795 735 965 1105 1134 1101 1203 1138 1289 1444 1731 1909 1978 2098 2021 2236 2260 2074 1800 1926 1886 1981 2359 2384 2626 2504 2125 2090 2098 2459 2542 1649 1819 1955 2282 1466 1136 309 0 0 0 0 0 0 78 106 952 360 422 491 568 691 981 1379 1403 1256 1342 1558 1567
524 600 637 640 621 600 588 721 784 830 867 872 857 799 783 760 816 804 820 807 793 864 1009 1028 972 1001 898 855 1036 1073 1110 1127 1173 1322 1367 1447 1679 1931 1943 2008 1952 2083 2283 2169 1999 1909 1870 1930 2277 2444 2368 2307 2147 2137 2216 2244 2363 1650 1942 1784 1750 2052 2336 545 0 0 0 0 0 0 0 0 36 182 315 390 468 558 812 1163 1222 1142 1303 1512 1494
509 584 640 626 624 632 635 721 812 848 924 899 933 930 901 933 882 874 864 813 838 894 1144 1081 1028 1052 1062 1034 1118 1218 1247 1216 1018 1051 1344 1447 1601 1884 1985 1942 1947 1885 2192 2150 2064 2097 1979 1967 2044 2367 2366 2184 1949 2061 2165 2016 2025 1820 1915 1899 1508 1487 1357 31 474 0 0 0 0 0 0 0 0 0 0 0 215 447 745 1008 998 990 1133 1202 1294
471 541 592 609 618 614 678 750 848 876 937 955 960 1003 1031 1009 980 984 955 877 904 1071 1098 1075 1171 1158 1202 1133 1180 1208 1231 1276 1244 1186 1183 1367 1475 1747 1999 2012 1933 1918 1954 2206 2052 2072 2078 2002 1904 2082 2224 2144 1912 1923 2098 2112 1707 1704 1776 2000 1774 1376 1216 146 320 0 0 0 0 0 0 0 0 0 0 0 0 130 559 795 842 843 904 968 1134
466 522 568 599 603 601 607 716 801 901 938 992 1015 1031 1098 1116 1091 1084 1073 949 926 1028 1069 1088 1154 1191 1232 1177 1222 1214 1234 1248 1307 1290 1230 1282 1396 1574 1876 2063 2010 1932 1879 2094 2150 2014 2089 2040 1958 1881 1979 1914 1844 1875 1924 1947 1624 1692 1885 1936 1992 1709 1189 81 0 638 47 766 0 0 0 0 0 0 0 0 0 6 121 555 611 735 792 885 963
546 574 587 591 594 592 596 704 745 844 934 995 1065 1069 1094 1151 1172 1182 1203 1084 964 1034 1099 1210 1131 1168 1189 1155 1193 1218 1216 1234 1293 1311 1328 1339 1336 1490 1756 1992 2051 1964 1879 1942 2123 2082 2016 2010 1931 1832 1909 1772 1937 1845 1899 1930 1784 1827 1917 1862 1875 1788 1394 1079 0 0 2 289 275 153 340 270 0 0 0 0 0 0 0 4 136 240 600 715 812
597 625 648 642 634 634 653 653 750 789 876 960 1080 1110 1108 1134 1184 1251 1292 1306 1158 1037 1096 1153 1131 1171 1172 1148 1149 1208 1183 1224 1256 1309 1321 1376 1363 1458 1676 1887 2035 2015 1904 1880 2032 2097 2048 2019 2072 2028 2051 2001 2135 2008 2008 2078 2035 2172 2178 2125 1996 1887 1605 1118 234 0 0 0 194 15 559 188 0 0 0 0 0 0 0 0 0 0 1 408 643
628 634 653 670 665 666 668 668 656 770 840 908 1033 1125 1123 1107 1138 1226 1340 1374 1332 1261 1164 1123 1177 1164 1186 1167 1143 1204 1206 1201 1240 1265 1286 1440 1462 1506 1629 1796 1968 2012 1937 1890 1953 2044 2128 2015 2225 2302 2242 2222 2553 2270 2128 2165 2149 2238 2324 2308 2235 2083 1869 1543 788 0 0 0 3 0 0 0 0 0 0 0 0 0 0 0 0 0 0 0 18
661 664 660 671 671 680 685 663 662 666 827 874 985 1098 1125 1110 1105 1135 1268 1383 1390 1332 1274 1153 1184 1192 1186 1148 1120 1156 1190 1218 1227 1220 1213 1254 1480 1596 1641 1762 1912 1993 1972 1961 1923 2016 2094 2057 2183 2371 2442 2365 2631 2472 2338 2260 2276 2243 2226 2291 2288 2240 2088 1815 1520 766 0 0 0 0 0 0 0 0 0 0 0 0 0 0 0 0 0 0 0
698 698 692 697 700 717 708 710 694 692 837 904 970 1070 1142 1146 1132 1125 1218 1336 1403 1397 1336 1240 1156 1204 1184 1157 1122 1104 1144 1207 1200 1198 1169 1189 1254 1514 1658 1753 1867 1962 1973 1996 1994 1995 2075 2148 2170 2287 2501 2668 2740 2622 2471 2436 2386 2299 2230 2269 2292 2227 2173 1977 1649 1519 1028 0 0 0 0 0 0 0 0 0 0 0 0 0 0 0 0 0 0
711 726 716 702 700 719 734 728 724 714 816 936 988 1038 1117 1150 1153 1168 1201 1286 1359 1380 1371 1315 1186 1172 1185 1165 1127 1085 1099 1140 1185 1205 1204 1180 1182 1292 1572 1695 1824 1894 1940 1960 2024 2014 2045 2221 2260 2294 2456 2654 2782 2756 2691 2600 2492 2303 2234 2201 2194 2262 2291 2123 1700 1523 1304 0 0 0 0 0 0 0 0 0 0 0 0 0 0 0 0 0 0
707 732 737 710 694 710 751 757 752 742 758 947 1016 1056 1098 1135 1152 1170 1206 1256 1330 1342 1355 1359 1306 1230 1194 1189 1141 1093 1096 1095 1122 1162 1222 1179 1128 1115 1381 1635 1736 1837 1870 1921 1955 2011 2038 2166 2325 2336 2421 2580 2727 2823 2784 2686 2554 2369 2304 2204 2133 2137 2217 2085 1684 1469 1388 17 0 0 0 0 0 0 0 0 0 0 0 0 0 0 0 0 0
734 759 765 756 744 727 744 768 766 764 757 935 1023 1076 1097 1118 1152 1181 1222 1249 1340 1365 1385 1391 1379 1350 1290 1217 1175 1128 1103 1082 1084 1087 1135 1167 1082 1055 1102 1446 1621 1732 1779 1820 1884 1961 2010 2063 2287 2404 2439 2563 2705 2822 2827 2749 2633 2507 2451 2330 2236 2133 2029 1953 1763 1544 1422 1123 0 0 0 0 0 0 0 0 0 0 0 0 0 12 0 0 0
787 798 800 792 788 783 775 776 776 760 757 874 1010 1088 1105 1111 1147 1193 1225 1245 1300 1367 1397 1419 1421 1387 1329 1250 1181 1129 1102 1074 1089 1080 1063 1072 1062 960 943 1202 1452 1616 1700 1734 1789 1915 1986 2016 2176 2414 2555 2629 2718 2818 2880 2874 2800 2710 2628 2528 2289 2247 2157 2048 1958 1784 1554 1327 407 0 0 0 0 0 0 0 0 0 0 0 0 1 1 0 0
759 834 833 826 822 810 796 782 782 786 784 807 981 1092 1118 1129 1125 1161 1202 1237 1281 1336 1376 1414 1416 1366 1314 1264 1203 1151 1135 1096 1093 1114 1085 1041 994 898 817 941 1302 1472 1621 1670 1722 1850 1945 2011 2118 2326 2521 2703 2783 2841 2899 2931 2944 2918 2837 2640 2351 2247 2266 2240 2163 1962 1690 1487 1129 468 0 0 0 0 0 0 0 0 0 0 0 0 0 0 0
664 818 830 838 858 832 799 775 781 795 810 820 941 1060 1138 1165 1159 1159 1201 1228 1266 1318 1366 1393 1398 1357 1333 1300 1252 1194 1158 1133 1096 1094 1118 1103 1050 963 816 759 1070 1366 1517 1628 1685 1748 1891 1969 2069 2244 2395 2615 2810 2885 2923 2949 2982 2996 2934 2712 2467 2327 2258 2264 2198 2026 1759 1603 1436 1005 550 0 0 0 0 0 0 0 0 0 0 0 0 0 0
587 736 804 837 865 855 819 801 790 804 812 829 929 1028 1117 1174 1198 1196 1227 1258 1272 1308 1346 1380 1391 1387 1370 1334 1296 1227 1193 1165 1130 1089 1058 1090 1090 1059 937 758 793 1175 1412 1592 1677 1717 1809 2124 2007 2162 2304 2409 2616 2814 2900 2934 2919 2908 2901 2812 2644 2500 2425 2399 2359 2121 1801 1663 1668 1437 921 702 432 0 0 0 0 0 0 0 0 0 0 0 0
545 682 780 820 858 846 829 821 799 784 802 832 912 1018 1082 1129 1184 1208 1234 1269 1290 1299 1337 1358 1380 1390 1369 1352 1307 1273 1246 1207 1168 1091 1025 1076 1112 1118 1086 960 768 949 1289 1511 1666 1721 1759 1868 1967 2066 2243 2346 2422 2604 2769 2840 2836 2817 2815 2816 2800 2693 2552 2521 2492 2327 2246 1976 1765 1678 1266 900 706 500 79 1 0 0 0 0 0 0 0 0 0
544 659 758 827 847 856 849 831 822 801 804 841 890 988 1054 1089 1134 1191 1212 1242 1280 1299 1315 1346 1353 1355 1349 1329 1317 1285 1277 1251 1188 1108 1028 1053 1109 1109 1109 1088 1056 994 1258 1441 1607 1663 1717 1772 1905 1997 2137 2302 2378 2452 2590 2721 2771 2761 2739 2727 2765 2776 2706 2645 2579 2497 2483 2409 2215 2015 1754 1180 958 714 478 327 484 2 0 0 0 0 0 0 0
570 688 775 822 850 864 851 843 836 816 798 829 874 963 1028 1064 1092 1145 1193 1212 1238 1270 1288 1306 1305 1322 1314 1305 1296 1290 1293 1260 1196 1120 1070 1025 1112 1149 1097 1085 1153 1179 1272 1460 1596 1660 1692 1712 1794 1908 2000 2171 2322 2397 2459 2575 2682 2716 2727 2722 2740 2774 2781 2774 2714 2624 2605 2596 2485 2248 2119 1870 1332 1060 788 492 490 416 19 0 0 0 0 0 0
585 717 808 846 853 860 864 890 877 868 820 841 862 899 989 1037 1065 1086 1148 1166 1177 1240 1271 1300 1303 1299 1304 1290 1266 1274 1280 1275 1240 1160 1104 1082 1070 1216 1267 1172 1124 1282 1391 1486 1590 1680 1723 1726 1732 1794 1870 1975 2142 2279 2393 2486 2561 2628 2678 2725 2750 2774 2827 2823 2798 2712 2674 2669 2589 2355 2182 2183 2069 1444 1158 856 506 549 570 97 2 0 607 594 0
554 695 828 887 899 897 906 940 956 919 851 884 894 905 942 983 1007 1040 1118 1154 1164 1187 1236 1279 1293 1300 1293 1278 1248 1233 1237 1230 1200 1142 1139 1156 1125 1125 1293 1386 1293 1223 1469 1599 1626 1678 1731 1746 1731 1721 1790 1874 1972 2091 2225 2386 2498 2560 2612 2640 2673 2738 2782 2802 2820 2784 2727 2698 2621 2433 2306 2249 2258 2146 1668 1273 979 652 570 606 614 595 597 670 749
516 661 799 915 969 950 941 967 985 936 869 969 1004 946 960 990 1007 1014 1083 1142 1138 1144 1194 1252 1288 1284 1259 1242 1215 1193 1176 1172 1167 1162 1186 1215 1209 1189 1220 1424 1489 1409 1365 1655 1782 1784 1782 1789 1770 1745 1750 1842 1933 2003 2072 2194 2364 2498 2564 2602 2646 2698 2735 2762 2729 2682 2686 2688 2640 2530 2432 2344 2287 2288 2238 1921 1512 1191 794 134 138 542 537 594 721
465 619 773 902 976 1015 1034 1043 1053 1000 926 956 1090 1093 1064 1091 1091 1085 1114 1150 1148 1120 1137 1220 1296 1308 1282 1245 1221 1195 1181 1182 1194 1224 1249 1261 1287 1284 1273 1387 1531 1585 1518 1501 1761 1919 1951 1921 1887 1846 1818 1829 1919 2015 2076 2120 2212 2362 2491 2557 2611 2647 2662 2657 2640 2627 2633 2644 2616 2548 2464 2371 2316 2281 2294 2236 1851 1404 1091 853 250 60 1 3 659
491 618 747 877 999 1078 1116 1119 1088 1048 1008 980 1091 1210 1245 1234 1242 1246 1243 1218 1219 1190 1182 1200 1282 1373 1388 1343 1297 1260 1245 1254 1262 1285 1302 1313 1328 1347 1345 1356 1485 1657 1726 1657 1637 1828 1977 2038 2031 1983 1916 1879 1888 1973 2076 2136 2175 2236 2357 2469 2525 2554 2576 2579 2577 2592 2616 2618 2570 2521 2447 2369 2287 2235 2163 2148 2064 1650 1243 1077 994 510 27 0 196
594 662 787 917 1007 1117 1159 1150 1137 1102 1056 1084 1116 1235 1369 1412 1430 1452 1434 1379 1354 1340 1318 1293 1298 1371 1447 1468 1439 1394 1353 1348 1385 1393 1381 1382 1388 1392 1380 1368 1372 1506 1723 1831 1798 1776 1879 1970 2046 2074 2047 1994 1946 1938 1997 2096 2162 2189 2249 2359 2464 2516 2531 2519 2515 2525 2547 2564 2555 2518 2458 2366 2270 2195 2103 2030 2012 1926 1695 1453 1188 1018 772 18 0
648 716 836 970 1077 1131 1163 1182 1177 1163 1146 1142 1186 1252 1413 1530 1598 1632 1648 1608 1544 1497 1480 1455 1422 1418 1466 1534 1546 1522 1481 1454 1458 1488 1485 1482 1471 1456 1445 1391 1340 1325 1420 1704 1930 1936 1921 1954 1984 1993 2036 2040 2020 1989 1980 2006 2067 2140 2180 2233 2326 2425 2467 2490 2499 2500 2521 2536 2537 2505 2450 2363 2265 2178 2095 2008 1913 1825 1713 1634 1503 1316 1083 824 202
665 778 894 1046 1121 1167 1183 1186 1202 1215 1204 1211 1254 1287 1397 1578 1706 1808 1859 1849 1792 1715 1667 1636 1603 1570 1552 1559 1596 1612 1609 1572 1548 1554 1573 1578 1570 1555 1532 1490 1413 1334 1265 1306 1579 1938 2057 2062 2055 2043 2007 1961 1931 1938 1971 2000 2029 2089 2140 2178 2233 2305 2365 2411 2449 2472 2494 2515 2520 2500 2460 2409 2327 2236 2134 2032 1909 1782 1651 1531 1454 1425 1370 1210 952
711 827 935 1054 1155 1218 1232 1221 1233 1243 1248 1326 1373 1375 1415 1544 1727 1911 2013 2040 1991 1929 1872 1841 1809 1768 1720 1676 1659 1689 1703 1696 1670 1638 1623 1621 1628 1634 1619 1588 1534 1449 1352 1266 1238 1386 1772 2040 2121 2123 2114 2104 2056 1980 1961 2001 2052 2104 2159 2189 2211 2250 2314 2357 2390 2412 2441 2466 2483 2476 2449 2417 2387 2327 2272 2183 2087 1980 1836 1660 1484 1345 1262 1228 1237
729 849 962 1067 1153 1218 1244 1248 1266 1289 1304 1390 1470 1497 1493 1525 1650 1858 2090 2220 2200 2155 2076 2046 1995 1954 1928 1892 1859 1844 1824 1806 1779 1720 1686 1661 1666 1678 1683 1670 1633 1572 1494 1398 1300 1234 1246 1494 1840 2024 2074 2084 2136 2168 2140 2098 2122 2182 2202 2246 2256 2259 2284 2352 2397 2421 2430 2429 2439 2442 2455 2448 2443 2434 2400 2352 2273 2158 2041 1922 1814 1679 1495 1320 1216
710 859 982 1058 1125 1181 1246 1293 1316 1334 1352 1428 1514 1568 1585 1589 1624 1776 2023 2280 2383 2357 2289 2229 2188 2154 2133 2102 2063 2019 1980 1949 1891 1841 1786 1796 1714 1700 1699 1699 1686 1654 1595 1518 1438 1341 1262 1229 1327 1602 1843 1936 1967 2049 2202 2270 2262 2261 2292 2287 2280 2289 2300 2350 2413 2462 2476 2460 2439 2416 2419 2421 2433 2438 2427 2406 2388 2347 2264 2170 2050 1919 1797 1670 1580
705 836 945 1027 1096 1156 1248 1330 1377 1392 1407 1469 1551 1602 1648 1664 1668 1729 1939 2222 2441 2521 2487 2428 2373 2332 2296 2236 2204 2170 2141 2093 2049 2003 2049 2115 2045 1890 1739 1719 1706 1681 1652 1618 1546 1455 1380 1291 1222 1249 1438 1703 1863 1892 1968 2144 2307 2365 2376 2356 2305 2315 2346 2364 2408 2457 2500 2510 2501 2473 2466 2447 2442 2448 2452 2450 2412 2369 2365 2364 2335 2245 2147 2027 1916
680 826 954 1054 1083 1146 1224 1328 1417 1453 1464 1504 1575 1658 1682 1679 1688 1748 2030 2272 2492 2622 2661 2653 2615 2570 2511 2448 2395 2361 2329 2290 2250 2274 2361 2399 2363 2262 2094 1903 1753 1711 1689 1650 1602 1563 1495 1431 1353 1284 1279 1349 1537 1735 1882 1952 2065 2228 2336 2356 2318 2267 2303 2366 2404 2442 2478 2518 2531 2531 2524 2516 2494 2470 2454 2444 2428 2418 2392 2351 2329 2315 2301 2249 2174
670 799 928 1026 1095 1135 1207 1304 1415 1492 1522 1521 1634 1756 1739 1734 1743 1869 2125 2395 2607 2741 2793 2806 2805 2773 2723 2660 2609 2567 2536 2517 2518 2579 2614 2611 2559 2481 2385 2298 2165 1953 1782 1710 1667 1640 1596 1535 1459 1382 1319 1304 1350 1457 1660 1837 1950 2022 2149 2304 2369 2313 2255 2296 2379 2433 2469 2492 2522 2535 2548 2544 2528 2490 2480 2442 2434 2410 2374 2330 2291 2262 2220 2166 2121
914 890 928 1021 1073 1110 1182 1266 1348 1449 1540 1589 1730 1934 2039 2066 2055 2092 2200 2451 2738 2892 2944 2963 2970 2967 2935 2877 2819 2787 2759 2756 2784 2810 2814 2792 2740 2740 2734 2658 2569 2420 2217 2008 1806 1709 1647 1591 1547 1489 1436 1401 1382 1416 1545 1689 1821 1916 1975 2055 2209 2315 2334 2321 2353 2424 2475 2498 2536 2572 2593 2604 2599 2584 2570 2547 2522 2480 2436 2388 2326 2291 2247 2180 2145
1945 1721 1609 1510 1531 1596 1840 2028 1713 1640 1557 1610 1670 1911 2144 2263 2320 2352 2372 2454 2725 2974 3101 3161 3173 3169 3148 3101 3044 3004 2982 2981 2995 2990 2983 2961 2954 2973 2978 2952 2928 2820 2616 2402 2159 1917 1743 1640 1585 1568 1548 1511 1443 1429 1525 1685 1811 1907 1993 2034 2057 2094 2163 2238 2310 2398 2462 2512 2554 2594 2621 2642 2643 2650 2661 2664 2656 2631 2596 2552 2513 2460 2431 2502 2532
2913 2919 2958 3024 3132 3280 3403 3236 3346 3413 3187 2336 1923 1943 2004 2259 2439 2527 2564 2574 2647 2893 3145 3312 3396 3382 3378 3338 3289 3230 3197 3173 3151 3142 3126 3133 3143 3163 3168 3150 3128 3045 2930 2750 2513 2254 1983 1764 1642 1571 1544 1526 1500 1486 1513 1596 1738 1904 2030 2105 2151 2177 2176 2181 2234 2321 2420 2504 2570 2621 2638 2640 2642 2665 2678 2701 2710 2698 2687 2666 2625 2617 2722 2788 2846
3104 3092 3147 3242 3336 3450 3539 3608 3704 3853 3865 3514 2588 2350 2345 2407 2478 2511 2684 2790 2813 2817 2946 3250 3495 3587 3587 3560 3516 3465 3416 3369 3326 3294 3282 3296 3301 3315 3299 3276 3256 3205 3143 3043 2901 2714 2460 2154 1851 1612 1505 1510 1510 1521 1553 1589 1618 1743 1908 2039 2108 2140 2156 2194 2235 2282 2344 2457 2560 2645 2701 2728 2731 2739 2761 2785 2804 2792 2788 2739 2786 2882 2972 3034 3054
3163 3210 3265 3336 3414 3463 3484 3541 3658 3857 4122 4146 4106 3757 3547 3171 3066 2719 2560 2658 2781 2825 2794 2882 3070 3430 3663 3696 3674 3627 3579 3529 3494 3464 3442 3434 3423 3406 3402 3375 3335 3284 3241 3184 3089 2983 2817 2609 2408 2168 1967 1700 1580 1623 1666 1691 1712 1733 1818 1922 2025 2077 2110 2150 2223 2278 2348 2433 2523 2631 2708 2776 2853 2894 2921 2928 2932 2920 2780 2934 2994 3097 3172 3237 3214
2908 2912 3007 3108 3143 3099 3135 3203 3349 3697 4051 4205 4085 3995 4019 4042 3891 3694 3852 4260 4575 3779 3167 3158 3124 3205 3273 3484 3680 3721 3707 3670 3623 3592 3562 3550 3525 3509 3470 3439 3399 3345 3300 3257 3200 3134 3035 2891 2703 2538 2424 2300 2172 1990 1901 1982 2000 1991 1987 2026 2098 2154 2206 2274 2361 2423 2504 2567 2648 2714 2768 2806 2855 2897 2840 2911 2989 3057 3142 3230 3331 3381 3431 3441 3237
2891 2665 2448 2515 2564 2813 3080 3277 3263 3308 3574 3816 3936 3905 3755 3681 3619 3654 3866 3981 4093 4220 4585 4077 3507 3523 3535 3551 3575 3579 3554 3679 3673 3654 3642 3628 3593 3557 3522 3491 3435 3387 3351 3295 3223 3178 3112 3043 2918 2776 2656 2596 2549 2476 2430 2356 2246 2337 2347 2348 2370 2403 2424 2499 2565 2646 2710 2772 2822 2863 2885 2842 3022 3129 3201 3239 3298 3395 3473 3520 3602 3615 3616 3433 3148
2771 2674 2581 2462 2382 2387 2463 2684 3266 3554 3410 3279 3367 3547 3606 3500 3412 3536 3775 3876 3924 4056 4335 4791 3896 3506 3587 3639 3663 3658 3660 3639 3623 3574 3647 3633 3604 3592 3568 3513 3480 3444 3395 3339 3283 3218 3166 3117 3062 2983 2885 2795 2744 2718 2681 2651 2574 2490 2512 2662 2681 2697 2719 2747 2780 2815 2838 2862 2862 2965 3110 3252 3400 3480 3514 3546 3574 3620 3649 3728 3749 3720 3704 3599 3068
2589 2616 2512 2421 2376 2304 2247 2098 2161 2564 3466 3542 3341 3274 3435 3424 3398 3569 3748 3817 3941 4013 4152 4695 4573 3779 3239 3151 3308 3450 3526 3558 3588 3600 3605 3639 3624 3609 3579 3548 3523 3488 3458 3408 3338 3281 3224 3181 3143 3106 3048 2995 2938 2925 2900 2876 2849 2797 2763 2720 2678 2703 2831 2856 2855 2884 2975 3145 3231 3290 3362 3470 3543 3570 3599 3636 3683 3711 3727 3731 3681 3658 3647 3596 3515
2394 2442 2426 2382 2319 2225 2077 1944 1858 1638 1761 2264 3331 3562 3561 3404 3427 3409 3691 3819 3880 4079 4110 4392 4746 4129 3538 3127 3084 3248 3363 3454 3530 3604 3652 3665 3662 3647 3636 3614 3584 3549 3509 3466 3418 3361 3327 3275 3217 3199 3165 3131 3107 3068 3075 3081 3098 3112 3112 3106 3085 3041 2974 3017 3230 3348 3379 3377 3401 3449 3485 3516 3569 3629 3636 3679 3789 3842 3832 3844 3865 3877 3833 3765 3736
2208 2228 2235 2223 2100 1969 1847 1688 1637 1669 1610 1682 1784 2202 3193 3344 3478 3589 3674 3838 3888 4082 4157 4327 4680 4492 3805 3339 3231 3300 3378 3468 3551 3602 3640 3659 3663 3662 3668 3666 3628 3593 3556 3516 3483 3434 3406 3386 3353 3327 3310 3288 3287 3295 3364 3408 3455 3496 3500 3470 3418 3381 3438 3495 3505 3525 3520 3544 3592 3648 3702 3769 3842 4010 4138 4149 4136 4152 4150 4108 4044 3966 3864 3763 3639
1903 1911 1944 1833 1609 1468 1464 1492 1527 1544 1604 1675 1727 1750 1860 2124 2901 3499 3695 3762 3839 4658 4205 4309 4842 4634 4054 3534 3535 3588 3630 3654 3677 3695 3690 3690 3697 3709 3706 3688 3678 3648 3611 3579 3552 3531 3513 3502 3488 3480 3488 3500 3530 3596 3681 3752 3807 3856 3878 3820 3789 3719 3650 3591 3665 3694 3758 3928 4058 4089 4104 4111 4021 4027 4109 4201 4191 4184 4126 4058 3906 3721 3549 3401 3276
1985 1932 1819 1690 1654 1616 1581 1546 1524 1507 1543 1583 1683 1764 1992 2300 2596 2883 3042 3470 3823 4386 3968 4306 4728 4802 4307 3801 3769 4511 4215 3943 3953 3970 3936 3899 3846 3835 3814 3789 3766 3750 3729 3714 3710 3689 3686 3699 3702 3712 3752 3802 3900 3989 4033 4063 4101 4132 4104 4043 3990 3950 3892 3810 3771 3984 4113 4174 4240 4297 4306 4267 4307 4327 4336 4272 4205 4034 3713 3457 3344 3274 3235 3194 3115
1990 1988 1880 1793 1731 1685 1633 1572 1515 1472 1440 1462 1553 1698 2019 2387 2635 2896 3128 3275 3614 3758 3919 4228 4646 4893 4539 4246 4017 4944 4404 4259 4246 4228 4198 4171 4214 4210 4162 4041 4007 3995 3978 3967 3967 3962 3989 4015 4055 4083 4122 4151 4226 4304 4340 4341 4325 4301 4258 4276 4294 4271 4168 4278 4388 4412 4394 4358 4288 4212 4164 4058 4014 3891 3744 3556 3478 3423 3326 3260 3175 3028 2839 2560 2083
1884 1970 1966 1915 1800 1702 1622 1589 1542 1414 1367 1395 1466 1550 1941 2386 2590 2789 3007 3314 3449 3649 3871 4094 4549 4838 4730 4405 4505 5004 4550 4446 4425 4405 4375 4353 4385 4416 4459 4470 4461 4335 4329 4342 4371 4402 4430 4454 4458 4436 4464 4538 4605 4596 4550 4515 4479 4435 4433 4446 4496 4432 4344 4186 4114 4060 3982 3893 3782 3701 3656 3667 3639 3573 3510 3433 3357 3167 2916 2674 2360 1820 1046 262 0
1729 1810 1823 1880 1846 1778 1673 1604 1545 1382 1330 1436 1507 1581 1802 2299 2644 2776 2897 3115 3384 3614 3777 4012 4411 4740 4896 4688 4866 4950 4738 4637 4545 4507 4439 4405 4375 4584 4722 4757 4742 4813 4752 4713 4747 4752 4772 4826 4823 4885 4866 4819 4756 4744 4725 4736 4726 4681 4654 4660 4669 4552 4455 4354 4213 4068 3968 3896 3827 3742 3704 3632 3570 3330 2925 2622 2472 2238 1536 502 0 0 0 0 0
Wind_Speed
11 13 14 15 13 10 5 3 3 4 6 5 6 4 4 4 5 6 9 9 10 12 13 12 10 11 12 11 12 12 12 11 11 10 9 8 8 8 8 8 8 8 9 9 10 10 11 10 10 9 9 9 11 14 16 17 19 19 18 16 18 18 18 nan nan nan nan nan nan nan 12 12 12 11 11 11 13 14 15 15 14 14 14 14 13
7 9 12 14 12 12 7 2 2 1 4 4 4 4 4 4 4 6 9 9 10 11 13 13 12 12 11 11 12 12 12 10 10 10 9 8 7 7 8 8 7 7 8 8 8 9 8 8 8 7 8 9 10 11 13 15 16 17 16 16 17 18 19 16 nan nan nan nan nan nan nan 14 12 11 11 13 13 14 15 14 13 13 13 13 11
11 12 12 13 16 14 9 4 2 1 2 4 5 6 5 5 6 7 8 9 11 11 13 13 13 14 12 13 11 13 13 11 9 9 8 8 7 8 8 8 7 8 7 7 7 8 7 7 7 6 7 8 8 10 12 14 15 17 17 16 17 17 18 18 nan nan nan nan nan nan nan nan nan 12 12 12 12 13 13 12 12 12 11 10 9
15 16 16 13 15 14 11 6 4 3 2 4 5 2 4 5 6 6 7 8 11 11 12 13 12 13 14 13 12 11 11 11 10 9 8 7 8 8 9 8 8 8 7 6 7 7 7 7 6 6 8 9 9 9 11 12 13 16 15 16 15 15 16 nan 15 nan nan nan nan nan nan nan nan nan nan nan 10 11 11 11 9 9 8 7 8
16 17 15 14 15 17 15 10 5 5 2 1 3 3 6 2 4 5 8 8 11 11 11 12 12 12 11 13 12 11 12 9 10 10 9 8 7 8 9 8 8 7 7 6 6 6 7 6 6 7 8 9 9 9 10 12 13 14 14 14 15 14 15 15 14 nan nan nan nan nan nan nan nan nan nan nan nan 11 12 10 8 7 7 8 10
14 18 19 19 18 15 13 11 8 5 3 1 4 4 5 6 6 7 10 10 11 11 10 10 9 8 8 7 7 9 10 10 10 9 8 7 8 8 8 7 7 7 7 6 6 6 6 6 6 6 7 8 10 10 10 9 11 12 13 13 14 13 12 nan nan 14 nan 13 nan nan nan nan nan nan nan nan nan nan 12 10 9 8 9 11 11
6 10 13 13 14 14 14 13 11 7 3 3 5 5 5 6 5 6 8 10 11 11 9 10 9 9 8 8 8 9 10 13 12 10 7 8 8 7 7 7 7 6 7 6 6 6 5 5 5 6 7 7 8 8 10 11 12 12 10 10 12 10 9 11 nan nan nan 12 12 12 12 13 nan nan nan nan nan nan nan nan 11 9 10 11 12
8 10 11 12 13 14 16 16 11 8 3 3 4 5 4 4 5 6 8 9 10 10 8 8 9 9 9 10 10 10 8 8 7 8 9 8 7 7 6 6 5 6 6 5 5 5 4 5 5 5 6 7 7 9 11 10 10 9 9 9 8 9 10 10 12 nan nan nan 11 nan 10 10 nan nan nan nan nan nan nan nan nan nan nan 11 11
8 7 11 13 13 12 11 11 10 7 4 2 2 3 4 5 5 6 7 7 8 7 7 7 8 9 9 10 9 8 7 7 8 9 9 8 7 9 6 5 4 5 5 5 5 5 5 5 5 5 6 7 7 8 9 8 10 10 10 8 8 9 9 8 7 nan nan nan nan nan nan nan nan nan nan nan nan nan nan nan nan nan nan nan nan
5 6 8 11 12 12 10 9 7 7 5 3 4 5 6 7 5 4 5 7 7 6 6 6 7 9 9 8 5 5 6 9 9 8 8 7 6 6 6 4 3 4 5 5 6 6 6 6 6 7 7 6 7 8 8 7 7 8 10 10 9 9 8 7 9 9 nan nan nan nan nan nan nan nan nan nan nan nan nan nan nan nan nan nan nan
6 5 6 8 10 11 9 9 9 6 3 4 4 5 5 5 3 1 3 6 6 4 5 5 7 7 7 5 2 3 5 9 10 9 9 8 6 6 4 3 3 4 4 5 6 6 7 8 8 9 7 7 7 7 8 8 7 8 8 8 8 9 8 8 7 7 7 nan nan nan nan nan nan nan nan nan nan nan nan nan nan nan nan nan nan
7 5 4 5 6 6 8 9 7 6 4 4 4 5 5 5 4 1 2 3 5 5 4 5 7 6 6 4 2 3 5 8 7 6 6 6 7 6 6 5 4 4 4 5 6 6 7 8 9 9 10 9 10 9 9 9 8 8 8 8 9 8 8 8 8 8 8 nan nan nan nan nan nan nan nan nan nan nan nan nan nan nan nan nan nan
9 6 4 3 6 9 10 9 5 5 4 4 4 4 4 4 4 3 2 2 4 5 4 5 6 6 5 3 3 5 6 7 7 7 6 6 7 8 7 6 6 4 4 5 6 6 6 8 9 10 11 11 11 10 11 11 11 10 10 10 9 9 10 10 9 10 10 nan nan nan nan nan nan nan nan nan nan nan nan nan nan nan nan nan nan
10 7 4 1 5 8 9 8 7 4 4 3 2 2 4 4 3 3 3 2 5 6 4 5 4 5 5 3 3 5 6 6 7 7 6 6 7 7 7 7 5 4 3 5 5 5 6 7 7 8 9 9 9 10 11 12 12 13 12 12 12 12 10 11 11 9 9 10 nan nan nan nan nan nan nan nan nan nan nan nan nan nan nan nan nan
11 9 4 3 5 8 8 8 6 5 5 3 2 2 4 4 3 2 1 3 4 5 6 5 6 5 5 4 4 6 6 7 8 9 8 8 8 7 7 7 6 6 5 5 3 4 5 5 5 5 6 6 6 7 8 9 10 11 11 13 13 12 13 13 12 12 12 11 9 nan nan nan nan nan nan nan nan nan nan nan nan nan nan nan nan
12 8 4 5 3 4 5 6 5 4 6 4 3 3 4 4 3 2 1 2 4 5 6 6 6 8 6 4 4 5 7 7 10 11 11 11 10 8 7 7 8 7 7 5 4 3 3 4 3 4 3 4 4 5 6 6 7 8 9 10 11 10 12 14 15 15 16 15 14 11 nan nan nan nan nan nan nan nan nan nan nan nan nan nan nan
8 5 4 3 1 2 5 6 5 5 6 6 6 5 4 5 4 3 3 3 4 5 6 7 8 8 7 6 7 7 6 5 7 8 10 12 11 10 9 8 8 8 7 6 4 4 2 1 2 2 3 4 5 6 7 7 7 7 8 8 9 9 10 12 12 14 15 15 14 15 15 nan nan nan nan nan nan nan nan nan nan nan nan nan nan
5 2 3 5 5 6 5 5 6 7 7 6 6 6 5 5 5 4 4 3 3 5 7 8 8 8 8 7 8 7 7 7 8 10 12 13 12 11 11 10 9 8 7 6 5 3 2 2 3 4 5 6 7 7 8 8 8 7 7 8 8 9 9 9 10 11 12 12 13 13 14 14 12 nan nan nan nan nan nan nan nan nan nan nan nan
9 7 5 5 3 2 5 6 7 6 6 6 6 7 7 6 5 5 3 4 5 8 10 11 9 11 11 9 9 9 10 10 11 12 13 12 11 11 10 10 10 10 9 7 6 4 4 4 5 5 6 7 7 8 8 8 8 7 7 7 7 9 9 9 9 10 9 10 11 12 12 13 12 12 nan nan nan nan nan nan nan nan nan nan nan
9 9 8 6 3 2 5 7 9 7 6 7 8 8 6 5 6 6 6 9 10 8 9 9 10 12 12 12 12 12 11 11 11 12 11 10 10 10 10 11 10 10 8 6 5 4 4 4 5 5 6 6 7 7 8 8 8 7 7 7 7 8 8 8 8 9 9 10 10 11 11 12 12 10 9 8 8 nan nan nan nan nan nan nan nan
6 7 6 5 4 3 4 4 6 6 7 9 8 6 7 8 6 6 7 8 8 7 8 9 11 11 12 11 11 12 11 12 11 11 11 11 11 11 11 11 13 10 8 6 4 3 3 3 4 5 5 6 7 7 8 8 8 7 7 7 7 8 8 7 8 8 9 9 10 10 10 10 11 11 10 8 6 6 nan nan nan nan nan nan nan
3 6 8 6 6 6 4 4 7 10 11 8 6 7 8 6 5 6 7 7 6 7 7 8 11 12 10 11 12 13 12 12 11 11 11 11 10 10 11 12 10 8 7 4 3 4 4 3 4 4 5 6 6 7 8 9 9 8 7 7 7 8 8 7 7 8 9 8 8 9 9 10 11 12 10 9 8 6 6 nan nan nan 9 9 nan
4 7 11 12 9 7 5 6 9 10 10 8 7 7 7 6 6 7 6 5 6 6 7 9 10 10 10 12 13 13 13 11 11 12 11 10 10 11 11 9 8 9 8 6 4 4 4 4 4 5 5 5 6 7 8 9 9 9 8 7 6 7 7 7 8 8 8 8 8 9 9 10 10 11 11 11 9 9 8 7 8 8 9 9 10
3 8 15 14 11 11 10 9 10 10 10 7 5 7 8 7 6 7 5 5 7 8 9 10 9 9 10 13 13 14 13 12 12 13 12 11 11 12 11 9 9 9 8 7 6 4 5 4 4 4 5 5 6 6 7 7 8 8 7 7 6 6 6 7 8 8 8 8 9 8 9 10 10 11 11 11 11 11 10 10 9 9 9 10 11
7 12 19 20 16 13 11 10 10 8 7 6 5 6 7 6 6 5 6 7 8 10 10 9 9 9 11 12 12 14 13 13 13 14 12 12 12 12 12 10 10 9 7 8 7 6 5 4 4 4 5 6 6 6 6 5 5 5 5 5 5 6 6 7 8 8 7 7 7 8 8 7 8 10 11 12 13 13 12 11 12 nan nan nan 12
12 16 24 22 14 12 12 11 10 8 6 5 5 7 7 7 6 6 7 9 9 11 10 10 11 11 12 11 12 12 11 11 12 13 13 13 13 12 12 12 10 7 7 7 6 7 6 4 3 3 4 5 5 5 4 4 3 3 4 4 5 5 6 6 6 6 5 5 6 7 7 6 8 11 13 13 13 14 13 13 14 15 nan nan 16
15 19 23 21 18 13 12 10 8 6 5 6 7 8 8 8 7 7 8 8 8 9 9 10 11 11 13 12 11 10 11 11 11 12 14 14 13 12 11 10 9 8 8 7 6 6 6 5 3 3 3 3 3 3 3 2 2 2 3 3 3 3 3 4 5 5 5 6 7 8 9 9 12 14 15 14 13 12 13 14 16 17 16 nan nan
22 23 24 20 15 13 10 8 7 6 6 8 9 9 9 8 7 7 7 7 9 9 9 9 11 12 13 12 12 13 12 12 14 14 14 14 13 12 11 10 10 9 8 7 7 6 6 4 2 2 2 2 2 1 1 1 1 0 0 1 1 2 5 6 7 7 7 8 10 11 12 14 15 15 14 13 11 12 12 13 14 15 16 18 19
25 23 22 20 18 13 9 8 7 7 8 9 11 11 12 13 12 10 8 5 7 8 9 9 10 11 12 13 14 15 16 15 15 15 14 13 12 12 12 11 10 10 10 9 8 7 5 3 2 1 1 1 1 1 1 1 2 3 3 5 6 7 8 9 10 10 9 10 11 12 14 14 15 17 17 15 14 14 12 14 14 16 17 19 19
22 20 19 19 15 11 9 8 8 7 8 11 11 10 9 9 8 7 6 7 9 9 10 10 10 11 13 15 15 16 16 16 15 14 13 13 13 12 12 11 10 9 9 9 9 6 4 3 2 1 0 1 1 1 4 7 6 4 6 8 9 10 11 11 10 9 9 9 11 11 12 17 17 17 17 17 18 19 20 18 17 18 20 20 21
16 18 18 18 15 13 14 13 10 7 8 10 10 9 10 9 9 8 7 8 8 9 10 10 11 13 15 16 17 16 16 15 15 15 15 13 12 13 12 11 10 9 8 9 8 5 3 3 2 1 1 0 2 3 7 5 7 9 7 9 10 11 10 10 9 8 8 8 8 10 10 11 13 13 14 18 18 21 22 22 22 23 24 24 23
17 18 18 19 18 18 17 14 11 10 9 10 11 12 11 9 8 7 8 10 10 10 10 11 12 14 15 15 16 16 16 15 16 15 15 14 14 13 12 11 10 9 9 9 7 4 4 4 4 2 0 1 3 5 6 5 5 7 7 8 8 9 8 8 7 6 6 6 7 7 7 6 8 11 12 14 17 20 22 23 24 25 25 27 28
17 21 21 18 14 14 13 11 13 12 10 8 10 11 9 8 7 8 12 11 11 11 12 12 12 12 12 14 15 15 15 15 15 15 16 16 14 13 12 11 10 10 11 8 6 6 5 5 4 2 1 2 4 4 4 4 4 4 6 5 7 7 7 6 5 4 4 5 5 4 5 5 7 13 13 13 15 17 21 24 24 24 25 26 26
21 21 17 14 14 15 14 12 13 14 10 11 13 10 8 10 11 12 10 11 12 13 13 12 11 11 12 13 13 12 12 13 14 15 15 14 13 11 11 12 13 12 9 7 7 7 7 6 4 3 4 5 5 4 2 2 2 2 2 0 6 6 7 6 5 3 2 3 4 3 4 6 8 11 12 14 16 17 18 21 23 23 23 23 25
26 28 27 24 20 20 19 19 21 22 24 23 21 20 22 20 16 12 12 12 12 12 12 12 11 11 12 12 11 11 11 12 12 12 12 11 11 12 11 13 13 11 9 8 9 9 9 8 6 6 7 6 6 3 1 1 1 2 2 3 5 6 7 6 5 3 1 1 2 3 5 6 8 11 13 16 17 18 19 20 21 22 22 21 22
27 29 28 25 24 21 19 21 27 28 26 22 21 23 22 18 16 15 14 13 14 13 12 12 11 9 8 8 8 8 7 8 8 8 8 7 8 9 9 11 12 11 11 12 12 12 11 10 9 9 8 6 7 3 3 4 5 6 8 8 6 5 5 5 4 3 2 2 3 4 4 5 8 11 14 19 19 20 20 20 21 21 21 21 22
34 36 35 33 32 30 28 29 29 30 28 24 25 24 21 20 18 17 16 15 15 14 13 11 10 8 7 7 7 5 5 4 5 4 4 5 6 6 8 11 10 10 11 12 12 13 15 14 12 11 8 7 9 7 6 7 9 11 14 11 9 8 6 4 4 4 5 4 4 5 6 7 8 11 15 19 21 24 21 21 22 22 23 22 21
38 40 40 39 39 37 35 34 34 34 32 27 25 23 23 22 20 19 17 16 15 14 13 12 10 9 8 8 6 5 5 4 5 4 4 5 5 6 7 10 9 9 10 10 14 16 17 17 14 11 10 10 11 11 9 11 13 16 16 13 12 11 7 5 5 7 8 7 3 6 7 8 9 11 15 20 23 27 24 23 24 24 23 23 22
39 41 41 42 42 40 39 39 38 38 36 33 28 25 23 21 20 19 17 16 15 15 14 13 12 11 10 9 9 7 6 6 6 5 5 6 6 6 7 10 9 10 9 13 16 16 17 18 16 14 12 11 14 14 13 13 16 18 18 16 16 14 10 7 9 9 10 9 5 4 8 10 10 12 16 20 24 30 27 27 28 28 27 25 27
40 43 42 42 42 44 46 44 41 37 35 38 39 36 32 28 25 23 20 17 17 16 16 15 14 12 11 11 11 10 10 9 8 8 8 8 8 8 8 10 10 11 11 14 15 15 15 17 19 18 17 15 15 17 19 16 18 20 20 19 19 16 11 9 11 12 11 9 6 6 9 13 15 14 16 21 26 33 32 30 32 32 31 29 35
40 39 39 43 45 44 42 40 37 38 39 40 41 42 42 42 42 41 39 38 36 33 29 25 21 18 15 13 13 13 12 13 13 12 11 11 12 11 10 11 11 12 12 13 14 15 15 16 19 21 20 18 18 18 19 21 20 21 20 21 20 15 13 14 15 14 12 10 9 11 13 16 19 20 21 23 26 31 34 32 32 34 34 34 39
41 40 40 41 41 40 38 38 37 40 41 41 42 42 41 43 45 44 42 40 40 37 33 29 24 20 18 17 15 15 15 16 16 17 17 15 15 14 13 13 14 14 13 12 14 15 16 16 19 20 20 19 19 17 21 22 22 21 22 21 20 16 16 18 17 16 14 12 11 14 17 18 19 21 23 25 26 29 32 34 31 31 30 32 39
43 43 40 40 40 39 38 36 36 37 38 38 40 40 39 40 41 38 37 38 37 36 33 30 27 24 21 20 19 17 18 20 20 19 19 18 20 19 18 17 17 16 15 13 13 14 16 17 19 20 21 21 23 23 21 24 22 22 22 21 17 16 18 20 19 16 16 14 15 17 18 17 19 21 24 25 27 28 31 33 31 30 30 31 41
45 43 41 41 40 37 37 37 37 37 37 37 37 37 38 40 39 36 36 36 36 35 35 33 31 28 26 25 23 21 21 22 21 21 21 21 23 24 23 21 19 18 17 15 15 15 15 16 18 21 24 25 27 27 25 24 25 22 22 21 17 14 18 23 21 18 19 18 19 21 24 28 28 27 27 27 28 31 34 32 33 32 31 34 43
44 43 41 39 38 37 36 37 37 37 37 37 37 38 39 40 38 38 39 40 39 38 38 37 33 30 29 28 28 26 24 24 24 25 24 25 26 29 28 26 24 20 18 17 17 18 16 16 17 19 23 27 29 29 29 26 24 24 21 20 17 17 15 18 21 20 22 24 29 35 38 37 36 36 34 34 35 35 35 34 35 35 38 41 43
44 42 40 38 38 38 37 37 38 37 38 37 39 40 41 37 38 41 42 43 43 43 43 43 39 35 32 32 30 29 27 27 28 29 27 28 28 29 29 29 27 23 20 19 19 20 19 19 19 20 22 25 28 29 27 28 28 26 24 19 18 18 17 19 21 24 26 28 29 33 37 37 37 40 39 39 39 41 40 39 39 42 46 45 48
44 40 37 38 38 39 38 37 37 35 36 36 37 39 39 39 41 42 44 44 45 45 47 47 44 40 38 36 33 33 34 34 35 36 35 35 33 32 31 31 29 26 24 22 22 22 22 22 22 23 23 24 24 24 25 30 31 29 27 27 27 24 24 27 27 25 25 26 30 34 36 36 37 35 36 37 38 40 42 43 45 47 48 48 50
43 42 39 38 38 38 38 37 36 33 32 33 34 35 36 39 40 41 43 43 43 44 46 47 46 44 42 40 38 37 39 40 40 41 40 39 38 36 34 33 31 29 27 25 25 25 25 24 24 25 24 24 21 22 25 27 28 28 28 29 29 28 29 30 29 30 34 35 36 40 42 43 43 44 44 45 45 45 46 46 46 47 48 50 51
48 45 43 42 39 40 39 39 37 35 35 35 34 34 36 37 37 38 40 41 41 42 42 44 44 43 40 40 39 39 40 41 44 47 47 47 45 43 41 40 42 38 32 29 28 27 27 27 27 27 27 24 25 23 23 29 31 31 30 30 30 30 33 35 37 40 42 43 44 45 46 48 48 48 48 48 48 48 48 48 48 49 50 51 53
48 46 45 44 41 40 40 40 38 38 40 39 38 37 36 36 35 35 37 39 38 38 39 40 39 39 37 36 36 37 37 36 35 36 38 42 49 51 47 43 41 43 43 40 37 31 31 33 38 37 33 29 25 28 37 40 40 40 41 40 40 42 41 42 43 46 46 46 46 49 49 50 50 51 51 50 50 50 49 49 50 50 51 53 nan
52 51 49 47 45 43 44 44 41 41 41 40 39 38 37 36 34 33 34 35 36 36 37 38 38 37 34 33 34 34 33 33 32 32 32 34 36 44 52 52 49 48 49 50 47 43 39 40 41 41 43 48 48 47 45 45 46 46 46 47 48 48 50 50 49 50 49 49 50 53 53 53 53 53 53 51 51 51 51 51 nan nan nan nan nan
Wind_Direction
10 9 9 11 9 360 342 242 186 185 193 213 228 198 172 182 192 169 174 175 171 165 157 152 147 145 139 130 126 128 123 123 119 119 116 109 101 98 99 103 107 102 99 101 104 111 110 107 102 97 87 77 72 70 69 68 67 65 69 78 79 83 82 nan nan nan nan nan nan nan 108 106 95 95 91 96 98 101 99 98 100 96 93 87 82
348 12 13 10 13 10 357 284 225 214 172 196 234 224 187 180 176 178 183 174 168 168 164 158 157 153 150 143 143 138 134 130 127 129 121 117 105 100 103 106 109 106 107 110 116 117 118 110 98 83 80 78 81 82 78 75 70 68 67 75 80 75 78 71 nan nan nan nan nan nan nan 111 107 104 100 98 97 96 94 97 96 90 84 80 81
354 9 11 11 13 13 14 355 305 321 193 177 200 221 208 184 177 184 180 178 171 175 174 163 167 167 161 159 147 150 144 139 139 136 133 118 107 104 105 107 109 115 115 118 123 121 116 106 90 80 73 73 77 77 75 74 70 66 62 60 70 74 74 76 nan nan nan nan nan nan nan nan nan 99 96 92 88 91 93 90 90 84 78 70 66
2 5 11 10 11 15 18 12 342 315 229 186 183 210 213 194 188 182 183 186 179 177 177 174 174 174 167 169 164 161 153 154 151 149 138 127 106 108 111 108 110 116 123 124 128 122 114 99 92 77 67 67 58 59 68 71 71 71 64 64 61 64 71 nan 67 nan nan nan nan nan nan nan nan nan nan nan 90 89 90 86 83 78 66 58 58
4 2 7 12 11 14 14 13 351 346 322 194 149 173 202 223 206 197 190 192 186 185 187 186 184 185 178 177 174 168 166 157 158 149 136 127 124 116 102 111 114 120 129 126 125 117 117 108 90 77 67 65 60 55 55 58 62 65 63 60 60 56 64 71 68 nan nan nan nan nan nan nan nan nan nan nan nan 85 85 78 72 66 59 56 58
4 2 7 14 16 11 7 5 14 16 355 189 162 170 199 198 209 209 195 194 195 193 193 189 176 176 172 160 151 139 139 149 139 136 146 131 109 123 121 111 115 126 134 131 127 127 112 107 99 82 74 63 58 55 53 56 60 61 61 57 61 66 58 nan nan 66 nan 59 nan nan nan nan nan nan nan nan nan nan 83 74 68 66 62 62 66
25 20 10 10 15 11 6 6 14 23 38 217 195 181 190 191 196 219 207 197 203 202 195 184 173 164 149 140 146 149 150 153 152 153 147 142 154 135 122 126 120 117 129 137 135 125 114 107 94 82 74 63 61 53 47 46 47 52 55 55 59 58 58 56 nan nan nan 58 56 64 64 68 nan nan nan nan nan nan nan nan 75 72 62 63 66
360 14 9 8 12 13 10 10 5 15 3 238 218 200 195 189 189 210 211 205 206 209 199 183 168 163 166 163 170 169 158 148 146 148 169 169 152 138 138 127 120 117 120 127 126 121 112 96 85 77 67 64 55 52 47 42 41 51 46 50 51 49 46 43 56 nan nan nan 52 nan 65 69 nan nan nan nan nan nan nan nan nan nan nan 69 64
346 357 5 1 4 13 14 10 8 347 335 323 265 230 210 204 190 196 210 211 210 220 206 183 171 175 182 183 179 174 156 154 171 176 180 174 163 160 148 138 122 111 107 97 95 93 90 78 73 66 57 54 55 56 57 42 36 35 36 34 38 46 43 42 40 nan nan nan nan nan nan nan nan nan nan nan nan nan nan nan nan nan nan nan nan
313 3 4 359 351 357 7 7 356 359 347 311 265 234 221 216 200 187 192 202 208 224 217 193 182 191 195 193 182 172 161 173 187 182 182 182 162 156 158 149 110 97 90 86 81 81 82 81 72 62 54 48 49 50 52 48 42 39 34 31 27 30 41 30 33 41 nan nan nan nan nan nan nan nan nan nan nan nan nan nan nan nan nan nan nan
295 337 3 1 338 343 352 2 13 3 316 297 285 266 244 240 233 179 165 191 200 214 221 201 195 200 202 203 179 156 168 184 189 183 188 179 157 159 160 131 114 88 91 91 81 78 79 78 72 70 66 58 52 46 48 45 39 37 36 29 24 25 23 26 38 41 36 nan nan nan nan nan nan nan nan nan nan nan nan nan nan nan nan nan nan
298 304 339 318 298 332 0 13 2 358 333 328 306 280 263 252 255 332 155 180 187 194 206 200 201 202 206 212 174 166 192 188 184 179 180 165 158 155 163 176 139 125 117 111 96 79 74 73 71 69 63 58 53 49 48 45 41 37 37 29 28 28 20 15 18 25 32 nan nan nan nan nan nan nan nan nan nan nan nan nan nan nan nan nan nan
260 265 266 286 332 343 1 8 350 347 356 351 334 291 274 262 287 330 47 138 176 188 191 198 205 206 211 211 181 197 204 195 189 186 180 165 162 160 172 158 167 158 128 106 96 75 73 68 63 59 60 56 51 46 48 44 41 36 37 36 31 27 25 20 18 21 15 nan nan nan nan nan nan nan nan nan nan nan nan nan nan nan nan nan nan
254 256 247 358 0 346 349 356 4 345 333 342 331 268 245 239 269 324 38 110 167 177 184 195 201 212 213 203 196 208 211 206 193 185 177 162 162 155 154 157 158 122 109 86 88 80 81 71 63 57 57 53 45 41 39 40 38 37 36 37 37 35 25 25 27 22 14 21 nan nan nan nan nan nan nan nan nan nan nan nan nan nan nan nan nan
250 246 222 78 22 345 340 356 358 335 324 315 251 238 234 234 250 302 56 104 151 165 179 183 194 206 208 191 198 210 214 206 191 185 178 166 166 163 151 156 148 130 107 110 125 89 82 83 72 57 47 42 34 28 27 27 30 32 33 37 39 34 31 29 33 25 23 18 9 nan nan nan nan nan nan nan nan nan nan nan nan nan nan nan nan
252 245 175 95 35 320 325 345 353 325 315 292 291 252 246 242 255 283 313 118 135 162 171 179 190 199 199 188 188 215 214 207 197 188 177 175 175 168 155 147 138 135 138 155 129 112 96 80 68 49 24 11 5 359 355 356 1 9 19 23 32 26 27 29 32 28 29 23 18 10 nan nan nan nan nan nan nan nan nan nan nan nan nan nan nan
237 225 165 73 11 332 339 340 340 329 312 316 311 295 299 266 251 265 244 192 147 156 171 184 193 197 190 185 190 203 212 211 201 188 177 182 182 175 166 145 144 145 147 157 154 150 130 57 13 352 335 335 336 337 335 335 331 340 351 359 9 4 9 19 21 22 27 20 19 13 12 nan nan nan nan nan nan nan nan nan nan nan nan nan nan
182 147 56 22 9 1 326 310 337 346 335 316 308 283 263 254 254 264 250 240 175 174 180 187 193 193 191 190 191 197 199 196 200 194 190 190 183 179 175 168 150 153 161 171 180 186 212 276 297 308 314 317 330 326 327 327 321 326 336 340 343 335 348 354 2 8 17 9 12 14 12 15 10 nan nan nan nan nan nan nan nan nan nan nan nan
185 168 169 184 178 244 294 322 337 338 324 310 284 265 243 228 236 249 254 232 220 194 188 186 188 192 194 195 199 198 196 197 198 197 196 190 184 180 174 164 168 172 179 189 199 210 241 262 283 299 303 322 321 324 324 325 325 331 330 332 324 323 333 344 345 347 359 355 3 11 9 17 13 11 nan nan nan nan nan nan nan nan nan nan nan
200 198 189 176 161 296 316 322 328 326 315 293 283 263 264 241 233 227 220 221 221 208 199 191 188 195 198 201 201 202 201 199 198 199 193 188 186 185 179 178 170 184 184 195 207 226 254 278 283 299 311 316 319 324 321 327 329 338 333 332 328 324 335 344 341 338 342 347 355 4 6 10 14 13 18 16 17 nan nan nan nan nan nan nan nan
217 222 208 177 174 225 262 306 317 285 259 255 258 273 261 241 229 230 236 237 236 226 215 200 203 201 205 206 207 207 202 199 194 190 188 188 192 188 183 178 192 187 196 202 218 234 253 276 288 293 310 314 319 322 316 317 324 332 332 333 329 334 346 348 340 346 345 346 352 358 5 5 357 10 22 24 18 13 nan nan nan nan nan nan nan
256 254 241 224 215 224 242 257 253 251 249 262 270 258 249 245 235 232 227 224 238 238 226 219 213 211 213 209 206 205 202 197 186 183 185 191 194 193 190 194 192 190 202 200 215 227 239 269 283 295 304 315 316 319 314 311 318 324 330 322 333 339 349 356 344 358 352 351 347 354 3 360 352 7 15 26 29 28 17 nan nan nan 16 14 nan
307 258 241 239 235 240 264 288 282 281 273 280 275 266 256 246 233 224 228 222 229 234 227 225 222 218 216 212 210 204 199 190 180 179 179 185 189 193 199 194 189 194 198 202 213 233 248 264 279 293 303 308 314 313 308 309 316 323 329 330 333 339 351 356 357 2 355 342 344 352 8 359 346 4 21 29 26 33 28 24 24 4 12 13 359
288 234 231 233 232 236 236 242 252 254 251 262 264 260 246 231 225 223 228 227 224 222 221 220 217 213 215 215 209 202 194 184 176 177 177 180 188 193 194 187 188 194 202 210 224 236 246 261 279 290 298 306 311 313 311 314 322 323 327 335 333 337 344 351 355 357 348 341 354 357 14 7 357 11 28 31 31 31 32 26 20 14 10 11 1
250 217 219 224 227 241 244 248 257 260 252 244 252 254 240 222 214 215 217 226 221 221 219 214 214 211 208 209 208 204 191 180 176 182 177 180 182 187 189 187 192 192 203 223 224 234 244 255 271 298 310 319 331 327 325 325 316 312 321 322 323 326 337 346 353 360 355 359 4 16 29 14 9 24 33 32 30 29 29 23 24 nan nan nan 4
248 219 219 227 230 240 244 248 250 252 244 237 240 240 227 208 199 200 215 223 218 217 215 211 206 201 196 198 200 197 185 179 182 184 179 177 180 183 187 191 197 195 210 220 229 235 244 258 277 314 329 337 330 323 332 339 324 298 289 294 306 323 340 353 7 22 28 26 36 47 51 38 39 43 47 41 33 32 26 23 23 22 nan nan 11
240 222 220 225 227 241 244 246 250 248 230 229 235 231 219 206 200 197 208 223 224 220 215 208 200 190 187 183 184 183 185 188 192 191 186 182 180 182 187 192 201 203 215 219 225 237 240 255 284 310 333 338 326 319 330 331 307 289 288 293 313 339 5 36 63 65 63 60 63 68 67 59 58 58 59 54 45 36 27 24 19 21 15 nan nan
219 216 220 228 235 238 235 225 226 220 216 218 218 215 211 212 208 201 207 221 219 217 210 202 195 181 174 173 177 185 192 196 201 198 191 187 186 187 190 194 202 204 209 215 227 241 246 252 280 299 331 303 300 314 22 10 321 330 215 140 84 78 81 90 94 90 81 75 70 70 69 64 62 63 59 59 44 40 28 26 17 8 5 1 5
212 213 217 225 230 223 211 203 207 220 219 217 212 203 201 200 198 192 194 208 223 220 210 200 191 177 172 179 188 195 199 202 204 202 195 192 194 194 195 196 198 201 206 210 224 237 251 258 244 261 319 291 300 39 81 77 83 99 121 115 108 102 99 100 100 96 91 81 76 71 68 65 58 55 49 45 36 24 15 17 15 358 359 355 356
212 212 215 222 229 218 201 198 205 222 223 218 208 197 193 198 195 192 192 203 217 213 208 200 190 184 187 192 197 201 203 204 203 200 198 199 200 200 199 196 197 200 207 216 224 233 245 266 264 280 338 183 129 136 72 47 58 108 120 125 125 115 109 108 105 102 94 79 72 67 66 59 52 47 42 38 34 25 18 10 4 349 356 354 353
215 213 216 217 216 207 205 207 208 219 234 224 207 187 183 182 183 189 197 210 216 212 209 203 196 197 200 201 203 203 206 203 198 196 199 201 201 203 201 200 200 202 209 221 228 230 235 249 271 283 343 112 127 123 65 60 65 71 111 127 121 119 119 114 110 103 91 78 70 60 59 53 43 37 32 32 27 21 15 13 13 7 357 353 353
211 207 211 211 212 215 216 212 205 213 227 217 202 190 184 166 166 179 203 214 213 210 207 203 200 203 205 206 204 205 202 198 197 193 196 199 202 205 203 203 204 206 213 223 228 230 229 242 244 240 215 148 132 95 73 75 79 79 91 117 130 129 127 123 118 104 96 79 66 58 49 35 21 14 8 11 14 14 10 6 6 8 8 5 358
210 207 208 210 217 227 228 216 206 209 218 212 207 201 176 152 150 177 205 207 208 207 204 200 197 201 204 203 204 203 197 194 193 193 197 202 204 206 207 210 210 214 219 224 232 238 235 243 248 239 189 176 161 108 85 79 88 81 72 91 141 141 141 135 134 113 86 65 56 52 40 16 4 10 1 357 352 351 353 359 360 2 4 5 3
209 207 205 201 210 215 217 214 205 206 212 210 206 197 182 180 182 191 188 191 201 200 196 188 185 193 198 201 201 199 195 194 199 201 205 208 210 212 217 221 223 225 225 227 240 249 243 244 246 236 216 204 180 144 99 88 104 80 63 91 152 152 161 160 155 140 112 62 41 27 19 11 346 337 338 342 340 339 333 330 335 338 343 353 356
212 203 194 195 206 211 210 207 200 200 205 206 199 197 202 199 193 180 174 179 183 185 181 177 180 191 197 197 199 201 201 206 211 216 220 221 225 226 232 236 239 242 241 240 244 247 247 244 236 234 229 214 198 157 193 299 279 296 296 262 183 175 167 165 171 178 131 51 359 348 3 3 337 327 326 332 329 326 323 325 327 328 330 333 335
209 206 198 205 213 215 212 209 205 207 208 207 206 210 211 204 195 181 176 176 176 170 163 168 173 176 179 184 190 193 199 210 222 228 235 237 239 242 246 246 246 245 243 243 241 243 247 246 236 234 233 215 210 237 263 278 288 280 281 247 222 194 172 161 169 190 210 246 285 322 330 336 330 327 332 338 330 317 315 322 324 322 319 320 326
212 208 202 204 212 214 210 210 211 209 210 206 209 212 211 209 200 186 182 180 175 166 159 161 162 161 163 175 185 188 194 213 234 246 255 256 251 248 246 247 251 252 253 255 252 246 239 238 237 236 232 218 219 238 266 277 283 287 269 246 238 221 205 184 178 209 226 245 275 304 311 313 322 324 329 329 328 322 319 324 323 322 320 321 324
218 211 208 210 214 213 210 217 216 210 208 210 213 213 212 210 202 193 190 181 173 165 165 166 170 183 190 195 203 210 215 229 247 270 286 278 270 257 258 258 264 265 263 261 253 243 238 237 238 234 230 220 221 233 262 267 280 287 281 261 247 238 225 220 212 222 232 236 265 359 336 321 324 320 323 326 324 317 319 324 323 322 326 329 318
214 217 215 214 216 217 216 218 217 214 207 211 217 218 215 209 204 197 192 181 168 172 179 181 185 198 207 216 222 229 234 247 262 278 286 293 291 286 279 271 267 262 262 257 254 248 242 237 235 232 232 228 223 231 256 267 277 283 278 257 254 245 236 235 236 232 239 240 245 296 347 336 324 319 324 321 321 317 320 323 321 322 329 329 311
211 212 214 216 217 220 218 218 216 211 208 215 218 216 209 207 206 203 197 186 178 180 187 193 198 201 208 219 226 235 240 247 258 265 267 277 278 275 276 279 273 263 255 255 258 257 253 242 237 236 234 233 230 233 248 272 276 281 288 267 256 253 248 251 249 248 248 254 271 288 305 320 329 332 327 323 322 324 323 322 319 322 327 325 308
208 213 215 220 220 222 222 220 213 211 211 214 221 220 212 208 208 207 201 196 194 194 194 198 202 201 203 213 221 232 243 243 248 255 259 261 264 274 281 284 287 277 267 258 260 258 255 247 242 241 239 240 239 240 250 276 278 284 289 282 260 263 261 259 256 256 262 268 277 286 284 300 316 324 326 327 325 323 323 322 323 323 324 323 307
207 211 217 224 226 226 225 220 213 214 212 214 220 222 217 213 211 207 202 197 195 194 196 197 199 203 207 211 215 221 233 240 246 251 253 255 259 267 274 283 279 276 278 276 264 255 250 246 243 241 241 242 246 259 251 270 284 286 287 293 268 264 268 262 258 257 263 267 274 276 278 291 308 312 314 314 318 318 321 315 322 326 329 320 307
207 213 215 224 228 228 226 223 216 214 211 211 217 219 219 218 216 209 205 202 200 199 196 197 200 204 209 213 215 222 228 231 237 247 255 259 260 264 270 273 277 274 273 274 275 265 254 246 244 243 241 242 245 250 267 264 277 284 285 286 290 269 271 263 259 259 265 267 268 270 271 283 286 287 292 298 302 309 305 309 323 324 323 322 304
209 213 216 221 225 224 224 218 215 211 210 209 214 215 215 217 214 210 209 207 206 205 205 205 206 208 211 215 219 224 228 230 236 239 243 248 253 258 262 266 271 273 268 267 266 267 262 254 250 247 247 247 248 250 257 271 270 281 277 281 281 275 266 260 261 258 261 262 264 266 261 258 262 269 278 286 292 295 298 307 307 309 310 308 304
208 211 215 219 223 224 222 217 211 211 210 210 210 214 211 210 205 208 208 208 206 207 209 213 216 215 219 220 223 227 231 232 234 239 238 239 242 249 254 255 260 264 264 263 261 265 267 264 257 253 253 252 252 253 252 261 274 277 281 278 276 274 268 267 258 258 258 257 254 256 255 256 260 265 272 279 284 289 295 300 303 305 301 300 303
209 212 215 219 221 222 221 218 211 209 211 211 211 212 212 204 203 204 205 205 205 205 207 208 213 218 221 226 229 230 232 235 236 236 238 239 243 247 249 252 258 260 261 259 258 260 263 264 263 259 257 256 255 253 253 253 257 259 261 265 269 264 260 257 250 241 240 242 249 252 254 259 265 269 272 276 279 283 288 293 296 298 299 301 302
213 214 218 219 221 223 222 219 216 209 211 212 213 211 210 208 208 206 207 207 207 208 208 210 210 215 219 222 227 230 233 234 234 233 234 235 238 241 244 248 252 256 256 254 254 257 259 262 264 263 261 261 259 257 255 253 253 256 255 255 256 251 253 254 256 256 255 255 251 255 260 266 272 276 280 283 285 286 287 290 293 296 298 300 301
217 219 223 224 225 226 225 223 221 216 216 217 216 213 210 209 209 210 211 212 213 214 213 213 214 218 221 221 223 229 234 235 236 237 237 237 236 237 240 243 248 252 254 254 254 255 258 261 262 263 264 263 262 261 259 258 256 256 255 255 256 257 259 262 261 259 260 260 261 262 265 269 274 277 279 281 282 285 288 290 292 294 297 299 302
219 220 223 226 226 227 225 225 223 221 221 219 215 211 209 208 208 210 212 215 216 217 217 218 217 221 225 225 228 230 235 237 237 235 234 232 230 230 232 235 233 234 239 248 251 250 252 255 258 262 263 260 256 260 258 252 255 256 259 259 259 259 259 260 260 263 261 262 265 267 270 272 275 279 280 281 282 284 287 289 291 292 294 297 299
220 223 225 225 226 228 228 227 225 223 223 220 214 208 206 206 207 209 213 216 215 218 220 219 219 221 226 232 234 236 238 241 244 244 244 240 237 238 233 233 233 227 230 236 240 246 249 252 251 245 245 255 259 257 259 259 260 259 259 261 261 262 264 264 266 270 268 268 269 272 273 276 277 279 280 281 282 284 286 287 290 293 294 296 nan
219 222 223 224 224 226 229 229 228 229 227 225 220 213 208 206 208 211 216 218 216 217 218 219 219 220 221 230 236 238 240 242 244 247 247 248 244 236 234 234 236 236 235 234 239 240 250 256 257 252 246 244 253 259 260 261 260 260 261 262 263 265 267 272 273 269 264 268 272 273 274 276 278 279 280 280 282 283 285 286 nan nan nan nan nan